Regional Weather Roundup
Issued by NWS

Home | Current Version | Previous Version | Text Only | Print | Product List | Glossary Off
Versions: 1 2 3 4 5 6 7 8 9 10 11 12 13 14 15 16 17 18 19 20 21 22 23 24 25 26 27 28 29 30 31 32 33 34 35 36 37 38 39 40 41 42 43 44 45 46 47 48 49 50

000
ASUS43 KDTX 222310
RWRMI
MICHIGAN HOURLY REGIONAL WEATHER ROUNDUP
NATIONAL WEATHER SERVICE DETROIT/PONTIAC MI
ISSUED BY NATIONAL WEATHER SERVICE GRAND RAPIDS MI
700 PM EDT SAT JUL 22 2017

NOTE: "FAIR" INDICATES FEW OR NO CLOUDS BELOW 12,000 FEET WITH NO
SIGNIFICANT WEATHER AND/OR OBSTRUCTION TO VISIBILITY.

MIZ047>049-052>055-059>063-066>070-074>076-081>083-230000-
SOUTHEAST LOWER MICHIGAN

CITY           SKY/WX    TMP DP  RH WIND       PRES   REMARKS
ADRIAN         MOSUNNY   82  69  64 NW8G17    29.78R
ALMA           CLOUDY    73  67  80 N10G17    29.80S
ANN ARBOR      MOSUNNY   81  71  71 W15       29.76S
BAD AXE        CLOUDY    67  65  94 NE5       29.79F
DETROIT CITY   MOSUNNY   81  74  79 N8        29.74R
DETROIT        PTSUNNY   84  72  67 NW14      29.75R
FLINT          CLOUDY    75  70  84 NW10      29.77R
GROSSE ILE     MOSUNNY   84  70  63 NW14G22   29.72R
HILLSDALE      CLOUDY    81  68  65 NW12      29.80R
HOWELL         CLOUDY    77  71  81 NW7       29.78R

CITY           SKY/WX    TMP DP  RH WIND       PRES   REMARKS
JACKSON        CLOUDY    80  68  66 W10       29.79R
LANSING        CLOUDY    77  69  76 NW8       29.79R
MASON          CLOUDY    78  71  78 NW7       29.79R
MONROE         SUNNY     81  69  66 NW12G18   29.74R
MT. CLEMENS    PTSUNNY   78  75  92 N7        29.73R
PONTIAC        CLOUDY    78  72  81 NW9       29.76R
PORT HOPE        N/A     69  63  81 NE15      29.78F
PORT HURON     CLOUDY    75  70  83 CALM      29.75F
TRI CITIES     CLOUDY    73  70  90 N10       29.79R
YPSILANTI      MOSUNNY   84  72  67 NW18      29.75S
$$
MIZ043>046-050>051-056>058-064>065-071>073-077>080-230000-
SOUTHWEST LOWER MICHIGAN

CITY           SKY/WX    TMP DP  RH WIND       PRES   REMARKS
BATTLE CREEK   CLOUDY    78  70  76 W13       29.81S
BENTON HARBOR  PTSUNNY   76  68  76 W8        29.82S
BIG RAPIDS     MOSUNNY   77  65  66 CALM      29.79F
COLDWATER      CLOUDY    79  69  71 NW9G16    29.81R
HOLLAND        CLOUDY    71  68  90 W7        29.82S
GRAND RAPIDS   PTSUNNY   77  70  79 N6        29.79S
KALAMAZOO      CLOUDY    77  67  71 NW12      29.81S
MARSHALL       PTSUNNY   78  70  75 W9        29.80R
MOUNT PLEASANT PTSUNNY   73  66  78 NE7       29.79F
MUSKEGON       CLOUDY    74  69  85 W9        29.80S
STURGIS        PTSUNNY   78  69  74 NW9       29.81R
$$
MIZ016>042-230000-
NORTHERN LOWER MICHIGAN

CITY           SKY/WX    TMP DP  RH WIND       PRES   REMARKS
ALPENA         CLOUDY    72  67  84 SE8       29.83S
BEAVER ISLAND  SUNNY     75  63  64 E8        29.81S
BELLAIRE       PTSUNNY   79  65  61 N3        29.77F
CADILLAC       MOSUNNY   79  64  60 CALM      29.80F
CHARLEVOIX     CLOUDY    74  67  80 N7        29.81F
GAYLORD        CLOUDY    73  62  68 VRB5      29.83S
HOUGHTON LAKE  MOSUNNY   74  65  73 SE8       29.82F
MANISTEE       PTSUNNY   76  65  68 NW12      29.80R
OSCODA         CLOUDY    70  67  89 S6        29.82S
PELLSTON       CLOUDY    75  65  70 NE8       29.81S
TRAVERSE CITY  MOSUNNY   79  64  60 N7        29.77F
LUDINGTON      MOSUNNY   74  68  81 NW7       29.80R
$$
MIZ007>008-015-230000-
EASTERN UPPER MICHIGAN

CITY           SKY/WX    TMP DP  RH WIND       PRES   REMARKS
KINROSS        CLOUDY    73  59  61 E10       29.83S
MACKINAC ISLAN CLOUDY    68  64  88 E10       29.82S
NEWBERRY       CLOUDY    73  66  77 CALM      29.81S
S. S. MARIE    CLOUDY    74  61  63 E5        29.82F
$$
MIZ004>006-011>014-085-230000-
CENTRAL UPPER MICHIGAN

CITY           SKY/WX    TMP DP  RH WIND       PRES   REMARKS
MANISTIQUE     MOSUNNY   71  66  86 SE5       29.80R
ESCANABA       SUNNY     75  66  73 SE10      29.78F
MENOMINEE      SUNNY     78  66  66 S9        29.78F
SAWYER-GWINN   PTSUNNY   66  64  94 NE7       29.80S
$$
MIZ001>003-009>011-084-230000-
WESTERN UPPER MICHIGAN

CITY           SKY/WX    TMP DP  RH WIND       PRES   REMARKS
IRON MOUNTAIN  MOSUNNY   82  66  58 S6        29.76F
HOUGHTON       CLOUDY    64  55  72 E9        29.82S
COPPER HARBOR    N/A     58  50  75 SE8       29.83R
IRONWOOD       SUNNY     72  63  73 NW8       29.82F
$$

ABBREVIATIONS USED IN REMARKS
   TC - TEMPERATURE IN CELSIUS
  WCI - WIND CHILL INDEX
   HX - HEAT INDEX
  VSB - VISIBILITY





USA.gov is the U.S. government's official web portal to all federal, state and local government web resources and services.